YMHBYMLT

Guest
Details From YMHB - Hobart
To YMLT - Launceston
Flight Number -
Tags Generated
Created
Modified
Stats Distance 78 nm / 145 km
Max Altitude 0 ft / 0 m
Waypoints 2
Social Downloads 1
Likes 0
Share VATSIM

Download

Looking for another format? Having issues loading an existing format? Contact us
Advertisement - Login to hide

Notes

Generated

Route

YMHB YMLT

ID Type Via Altitude Latitude Longitude Leg Dist Tot Dist Heading (true) Name
O YMHB APT - 0 ft / 0 m -42.82898˚ 147.50206˚ - 0 nm - -
O YMLT APT - 0 ft / 0 m -41.54109˚ 147.21346˚ 78 nm 78 nm 350° / 351° Launceston

Altitude Profile

Advertisement - Login to hide

YMHB

Details ICAO YMHB (HBA)
Name Hobart
Region Australia
Timezone Australia/Hobart (UTC+11.0)
Stats Elevation 12 ft / 4 m (AMSL)
Location -42.836167° 147.511798°
Runways 1
Magnetic Variation 15.099° E

METAR

YMHB 180500Z 17019KT 9999 FEW055 21/11 Q1010

Decode

TAF

TAF YMHB 172334Z 1800/1824 35005KT CAVOK FM180200 15015KT CAVOK FM180900 08008KT 9999 SCT030 FM181400 03010KT 9999 FEW020

Decode

Departure Runways

ID Width Length Bearing (true) Bearing (mag) Surface Threshold Offset Overrun Length
12 148 ft / 45 m 7,379 ft / 2,249 m 135.11° 120.01° Asphalt 0 ft / 0 m 0 ft / 0 m
30 148 ft / 45 m 7,379 ft / 2,249 m 315.09° 299.99° Asphalt 0 ft / 0 m 0 ft / 0 m

YMLT

Details ICAO YMLT (LST)
Name Launceston
Region Australia
Timezone Australia/Hobart (UTC+11.0)
Stats Elevation 562 ft / 171 m (AMSL)
Location -41.543903° 147.213919°
Runways 3
Magnetic Variation 14.278° E

METAR

YMLT 180500Z AUTO 35008KT 9999 // NCD 26/14 Q1009 RF00.0/000.0

Decode

TAF

TAF YMLT 172330Z 1800/1824 34008KT 9999 SCT030 FM180400 34014KT CAVOK FM181000 VRB05KT CAVOK FM181500 VRB05KT 9999 FEW015

Decode

Destination Runways

ID Width Length Bearing (true) Bearing (mag) Surface Threshold Offset Overrun Length
14L 164 ft / 50 m 2,681 ft / 817 m 147.10° 132.82° Grass 0 ft / 0 m 0 ft / 0 m
14R 148 ft / 45 m 6,504 ft / 1,982 m 147.40° 133.12° Asphalt 0 ft / 0 m 0 ft / 0 m
18 164 ft / 50 m 2,458 ft / 749 m 14.15° 359.87° Grass 0 ft / 0 m 0 ft / 0 m
32L 148 ft / 45 m 6,504 ft / 1,982 m 327.40° 313.12° Asphalt 0 ft / 0 m 230 ft / 70 m
32R 164 ft / 50 m 2,681 ft / 817 m 327.10° 312.82° Grass 0 ft / 0 m 0 ft / 0 m
36 164 ft / 50 m 2,458 ft / 749 m 194.15° 179.87° Grass 0 ft / 0 m 0 ft / 0 m

Approach Navaids

Runway Type Ident Frequency Range Bearing (true) Bearing (mag) Slope Elevation
32L Localiser ILT 109.50 MHz 18 nm / 33 km 327.93° 313.65° - 562 ft / 171 m (AMSL)
32L Glidescope ILT 109.50 MHz 10 nm / 19 km 327.40° 313.12° 3.00° 562 ft / 171 m (AMSL)

Popular Alternatives